Forside
METAR-TAF:

METAR-TAF

Lufthavne :

Marshalltown Municipal Airport

Marshalltown, Iowa, USA

Breddekreds: 42-06-38N, længdekreds: 092-54-58W, højde: 296 m

Aktuelle vejr

Denne rapport blev lavet for 41 minutter siden, kl. 00:53 UTC
Vind 10 kt fra nordnordvest med vindstød på up til 19 kt
Temperatur 18°C
Fugtighed 37%
Tryk 1014 hPa
Sigt: 16.1 km
skyfri

METAR: KMIW 220053Z AUTO 34010G19KT 10SM CLR 18/03 A2995 RMK AO2 SLP142 T01780028

Tid: 20:34 (01:34 UTC)


TAF: fraværende

Vejrobservationer og prognoser fra mere end 4000 lufthavne (METAR og TAF).

De gule og røde prikker repræsenterer de meteorologiske stationer.

Flyt musen over at se navnet på stationen.

Så klik over at se vejr observationer og prognoser.

At skifte det kort: Klik på de grønne knapper med et sort kors for at zoome ind; på den grønne knap med en bindestreg for at zoome ud; eller på de grønne pile for tilstødende kort.


METAR-TAF: